GMT,Max TemperatureF,Mean TemperatureF,Min TemperatureF,Max Dew PointF,MeanDew PointF,Min DewpointF,Max Humidity, Mean Humidity, Min Humidity, Max Sea Level PressureIn, Mean Sea Level PressureIn, Min Sea Level PressureIn, Max VisibilityMiles, Mean VisibilityMiles, Min VisibilityMiles, Max Wind SpeedMPH, Mean Wind SpeedMPH, Max Gust SpeedMPH,PrecipitationIn, CloudCover, Events, WindDirDegrees
2012-12-1,41,36,30,36,30,25,100,77,49,29.97,29.91,29.83,7,6,2,17,8,,0.02,4,Rain,296
2012-12-2,41,34,28,31,26,25,96,75,48,29.99,29.95,29.83,6,6,4,10,5,,0.00,5,,260
2012-12-3,46,40,33,39,34,32,100,83,58,29.80,29.60,29.50,19,5,0,23,9,,0.00,6,Fog-Rain,228
2012-12-4,43,39,35,37,36,34,100,86,69,29.63,29.54,29.47,17,7,4,14,10,,0.04,5,Rain,305
2012-12-5,37,34,30,34,28,24,100,78,53,30.00,29.81,29.62,19,7,6,21,11,,0.00,3,Rain,324
2012-12-6,39,32,26,36,29,23,100,82,67,30.00,29.70,29.27,19,8,6,21,11,,0.08,6,Rain,215
2012-12-7,41,38,35,38,34,28,93,80,53,30.06,29.61,29.27,18,7,6,24,16,,0.01,4,Rain,326
2012-12-8,48,42,35,43,36,30,100,79,61,30.22,30.15,30.06,19,7,5,18,9,31,0.00,6,Rain,275
2012-12-9,48,44,39,41,35,28,81,65,44,30.04,29.96,29.89,16,8,6,24,19,38,0.00,4,Rain,297
2012-12-10,41,37,33,36,33,30,95,84,70,30.43,30.25,30.04,19,8,5,18,15,,0.00,1,Rain,339
2012-12-11,39,32,26,34,31,27,100,90,76,30.45,30.39,30.27,19,7,4,10,6,,0.00,3,Fog,311
2012-12-12,34,29,24,31,29,25,100,92,73,30.27,30.05,29.89,7,3,0,9,4,,0.01,6,Fog,192
2012-12-13,27,25,23,30,26,23,100,97,92,29.86,29.71,29.53,4,1,0,8,3,,0.00,5,Fog,360
2012-12-14,46,35,24,42,37,23,100,96,79,29.50,29.01,28.65,14,4,1,21,9,,0.31,7,Rain,136
2012-12-15,50,44,37,43,40,36,96,85,70,29.34,29.12,28.82,19,8,5,23,13,,0.00,5,,201
2012-12-16,46,40,33,43,37,32,100,96,83,29.46,29.41,29.33,14,5,2,8,5,,0.03,4,Fog-Rain,168
2012-12-17,45,39,33,43,39,34,100,94,83,29.58,29.45,29.36,14,6,0,9,6,,0.01,5,Fog-Rain,191
2012-12-18,45,43,41,43,41,39,100,94,87,30.13,29.97,29.68,14,6,3,12,8,,0.00,7,Rain,342
2012-12-19,44,42,41,43,40,37,100,91,73,30.12,30.01,29.86,11,5,1,20,11,,0.20,6,Rain,124
2012-12-20,42,42,41,43,41,40,100,96,91,29.86,29.63,29.53,5,3,1,23,19,,0.55,7,Rain-Snow,110
2012-12-21,43,42,40,43,41,39,100,96,87,29.89,29.75,29.56,14,6,3,9,6,,0.00,7,Rain,314
2012-12-22,48,44,41,48,44,39,100,98,93,29.86,29.56,29.36,9,3,0,16,8,,0.43,6,Fog-Rain,136
2012-12-23,55,47,39,52,42,36,100,74,53,29.62,29.44,29.27,16,7,6,34,18,48,0.00,3,Rain,234
2012-12-24,42,38,35,43,39,36,100,98,93,29.60,29.40,29.27,16,5,1,8,5,,0.16,6,Rain,155
2012-12-25,46,40,35,45,40,36,100,92,77,29.49,29.28,29.18,19,6,3,15,8,,0.08,5,Rain,212
2012-12-26,47,43,39,43,39,36,100,83,62,29.53,29.44,29.30,18,8,2,22,11,,0.20,4,Rain,227
2012-12-27,42,38,33,40,36,33,100,85,61,30.07,29.66,29.36,19,8,6,16,11,,0.01,5,Rain,277
2012-12-28,55,44,33,49,44,34,100,87,69,30.06,29.77,29.53,14,7,3,28,14,39,0.04,6,Rain,187
2012-12-29,54,47,40,50,43,37,94,83,71,29.53,29.40,29.33,14,7,4,30,19,41,0.16,6,Rain,209
2012-12-30,51,45,39,46,38,34,87,76,62,29.62,29.55,29.42,19,8,6,26,19,43,0.08,4,Rain,238
2012-12-31,53,47,41,48,43,37,87,78,64,29.53,29.37,29.27,7,6,6,31,20,50,0.12,4,Rain,234